CZ-6A DEB, 54897

Orbit data source: Space-Track

CZ-6A DEB, 54897 is space debris in SSO originally from a launch on Fri, 11 Nov 2022 UTC launched from the Taiyaun Space Center, China (TSC). Debris objects in space refer to the collection of defunct objects orbiting the Earth. Examples of debris include non-operational satellites, rocket bodies, and fragments generated from explosions, collisions, or faulty payload assembly.

Loading next visibility...
Identifier
54897, 2022-151QJ
Orbit
SSO
Country
Flag of CNCN / PRC
Related business
Manufacturer
SAST
Mission
Spacecraft
Bus & Motor
Unknown
Mass
Unknown
Launch date (UTC)
2022-11-11 (4 years ago)
Launch vehicle
Unknown
Launch site
Taiyaun Space Center, China (TSC)
Object type
Payload
Rocket body
Debris
Shape & HBR
Unknown shape, 0.1 m
Radar Cross Section
Small (<0.1 m²)

Expand to show TLE details & history
Last TLE update: 20 hours ago

TLE from 20 hours ago
0 CZ-6A DEB
1 54897U 22151QJ  26237.13893138  .00009285  00000-0  15649-2 0  9991
2 54897  98.6033 298.7020 0083716  85.9500 275.1267 14.67423355195920
Epoch: 2026-08-25T03:20Z
TLE epoch observation values (Epoch: 2026-08-25T03:20:03.671Z)
Latitude
0.00001°
Longitude
-84.72387°
Altitude
667.506 km
Speed
7.526 km/s
True Right ascension
19h 54m 48s
True Declination
0° 00' 00"
Sunlit
Object was in full shadow at epoch
Visualization orbit readout
Latitude
Unknown
Longitude
Unknown
Altitude
Unknown
Speed
Unknown
Apparent Right ascension
Unknown
Apparent Declination
Unknown
Sunlit
N/A
Visualization observer readout
Local Sidereal Time
14:49:50
Azimuth
Unknown
Elevation
Unknown
Doppler factor
Unknown
Orbital elements
Apogee altitude
725.37 km
Perigee altitude
607.422 km
Semi-major axis
7,044.533 km
Eccentricity
0.00837
Inclination
98.6033°
RAAN
298.702°
Arg. of periapsis
85.95°
True anomaly
274.17037°
Mean anomaly
275.1267°
Eccentric anomaly
274.64862°
Mean motion
3.67084 °/min
Orbital period
98.07 mins
BSTAR
0.0015649
Loading maneuver chart data...
Computing Atmospheric mass density...
Loading historical data...
Loading historical data...
Loading historical data...
Loading historical data...
Loading historical data...
Loading historical data...
Loading historical data...

Documentation

Showing up to 5 results
|